TimeCST,TemperatureF,Dew PointF,Humidity,Sea Level PressureIn,VisibilityMPH,Wind Direction,Wind SpeedMPH,Gust SpeedMPH,PrecipitationIn,Events,Conditions,WindDirDegrees,DateUTC
12:15 AM,59.0,50.0,72,30.31,10.0,ENE,19.6,-,N/A,,Overcast,60,2013-12-11 06:15:00
12:35 AM,59.0,51.8,77,30.30,10.0,ENE,19.6,-,N/A,,Overcast,60,2013-12-11 06:35:00
12:55 AM,59.0,53.6,82,30.30,10.0,NE,18.4,-,N/A,,Overcast,50,2013-12-11 06:55:00
1:15 AM,59.0,53.6,82,30.30,10.0,NE,18.4,-,N/A,,Overcast,40,2013-12-11 07:15:00
1:35 AM,59.0,53.6,82,30.29,10.0,NE,17.3,-,N/A,,Overcast,50,2013-12-11 07:35:00
1:55 AM,60.8,53.6,77,30.29,10.0,NE,17.3,-,N/A,,Overcast,40,2013-12-11 07:55:00
2:15 AM,60.8,53.6,77,30.29,10.0,NE,17.3,-,N/A,,Overcast,40,2013-12-11 08:15:00
2:35 AM,60.8,55.4,82,30.28,10.0,NE,16.1,-,N/A,,Overcast,40,2013-12-11 08:35:00
2:55 AM,60.8,55.4,82,30.28,10.0,NE,15.0,-,N/A,,Overcast,40,2013-12-11 08:55:00
3:15 AM,60.8,55.4,82,30.28,10.0,NE,15.0,-,N/A,,Overcast,40,2013-12-11 09:15:00
3:35 AM,60.8,55.4,82,30.27,10.0,NE,17.3,-,N/A,,Overcast,50,2013-12-11 09:35:00
3:55 AM,60.8,55.4,82,30.27,10.0,NE,15.0,-,N/A,,Overcast,50,2013-12-11 09:55:00
4:15 AM,60.8,55.4,82,30.27,10.0,NE,12.7,-,N/A,,Overcast,40,2013-12-11 10:15:00
4:35 AM,62.6,55.4,77,30.28,10.0,NE,13.8,-,N/A,,Overcast,50,2013-12-11 10:35:00
4:55 AM,62.6,55.4,77,30.28,10.0,NNE,15.0,-,N/A,,Overcast,30,2013-12-11 10:55:00
5:15 AM,62.6,55.4,77,30.28,10.0,NE,13.8,-,N/A,,Overcast,40,2013-12-11 11:15:00
5:35 AM,62.6,57.2,82,30.29,-9999.0,NNE,15.0,-,N/A,,Overcast,30,2013-12-11 11:35:00
5:55 AM,62.6,57.2,82,30.29,-9999.0,NNE,15.0,-,N/A,,Overcast,30,2013-12-11 11:55:00
6:15 AM,62.6,57.2,82,30.30,10.0,NNE,17.3,-,N/A,,Overcast,20,2013-12-11 12:15:00
6:35 AM,62.6,57.2,82,30.31,10.0,NNE,16.1,-,N/A,,Overcast,30,2013-12-11 12:35:00
6:55 AM,62.6,57.2,82,30.32,10.0,NNE,18.4,-,N/A,,Overcast,30,2013-12-11 12:55:00
7:15 AM,62.6,57.2,82,30.33,10.0,NNE,18.4,-,N/A,,Overcast,30,2013-12-11 13:15:00
7:35 AM,62.6,57.2,82,30.33,10.0,NNE,18.4,-,N/A,,Overcast,30,2013-12-11 13:35:00
7:55 AM,62.6,57.2,82,30.34,10.0,NNE,19.6,-,N/A,,Overcast,30,2013-12-11 13:55:00
8:15 AM,62.6,57.2,82,30.34,10.0,NNE,21.9,-,N/A,,Overcast,20,2013-12-11 14:15:00
8:35 AM,60.8,57.2,88,30.35,10.0,NNE,21.9,-,N/A,,Overcast,30,2013-12-11 14:35:00
8:55 AM,60.8,57.2,88,30.36,10.0,NNE,20.7,-,N/A,,Overcast,30,2013-12-11 14:55:00
9:15 AM,60.8,57.2,88,30.37,10.0,NNE,21.9,-,N/A,,Mostly Cloudy,30,2013-12-11 15:15:00
9:35 AM,60.8,57.2,88,30.36,10.0,NNE,24.2,-,N/A,,Partly Cloudy,30,2013-12-11 15:35:00
9:55 AM,60.8,57.2,88,30.36,10.0,NNE,20.7,-,N/A,,Partly Cloudy,30,2013-12-11 15:55:00
10:15 AM,62.6,57.2,82,30.36,10.0,NE,20.7,-,N/A,,Clear,40,2013-12-11 16:15:00
10:35 AM,62.6,57.2,82,30.36,10.0,NNE,19.6,-,N/A,,Clear,30,2013-12-11 16:35:00
10:55 AM,62.6,57.2,82,30.36,10.0,NNE,20.7,-,N/A,,Clear,30,2013-12-11 16:55:00
11:15 AM,60.8,57.2,88,30.36,10.0,NNE,21.9,-,N/A,,Clear,20,2013-12-11 17:15:00
11:35 AM,60.8,57.2,88,30.35,10.0,NNE,20.7,-,N/A,,Clear,20,2013-12-11 17:35:00
11:55 AM,60.8,57.2,88,30.35,10.0,North,20.7,-,N/A,,Clear,10,2013-12-11 17:55:00
12:15 PM,60.8,55.4,82,30.33,10.0,NNE,19.6,-,N/A,,Clear,30,2013-12-11 18:15:00
12:35 PM,60.8,55.4,82,30.33,10.0,NNE,18.4,-,N/A,,Clear,30,2013-12-11 18:35:00
12:55 PM,60.8,55.4,82,30.32,10.0,NNE,18.4,-,N/A,,Clear,20,2013-12-11 18:55:00
1:15 PM,60.8,55.4,82,30.32,-9999.0,North,21.9,-,N/A,,Clear,10,2013-12-11 19:15:00
1:35 PM,60.8,55.4,82,30.32,10.0,NNE,20.7,-,N/A,,Clear,20,2013-12-11 19:35:00
1:55 PM,60.8,55.4,82,30.32,10.0,NNE,18.4,-,N/A,,Clear,30,2013-12-11 19:55:00
2:15 PM,60.8,55.4,82,30.31,10.0,NNE,17.3,-,N/A,,Clear,20,2013-12-11 20:15:00
2:35 PM,60.8,55.4,82,30.31,10.0,NNE,18.4,-,N/A,,Clear,20,2013-12-11 20:35:00
2:55 PM,60.8,55.4,82,30.31,10.0,NNE,19.6,-,N/A,,Clear,20,2013-12-11 20:55:00
3:15 PM,62.6,57.2,82,30.31,10.0,NNE,18.4,-,N/A,,Clear,20,2013-12-11 21:15:00
3:35 PM,60.8,57.2,88,30.31,10.0,North,20.7,-,N/A,,Clear,10,2013-12-11 21:35:00
3:55 PM,60.8,57.2,88,30.31,10.0,NNE,18.4,-,N/A,,Clear,30,2013-12-11 21:55:00
4:15 PM,60.8,55.4,82,30.32,10.0,NNE,17.3,-,N/A,,Scattered Clouds,20,2013-12-11 22:15:00
4:35 PM,60.8,55.4,82,30.33,10.0,NNE,18.4,-,N/A,,Mostly Cloudy,20,2013-12-11 22:35:00
4:55 PM,60.8,55.4,82,30.33,10.0,North,18.4,-,N/A,,Mostly Cloudy,10,2013-12-11 22:55:00
5:15 PM,60.8,55.4,82,30.33,10.0,NNE,18.4,-,N/A,,Scattered Clouds,20,2013-12-11 23:15:00
5:35 PM,60.8,55.4,82,30.34,10.0,NNE,18.4,-,N/A,,Scattered Clouds,20,2013-12-11 23:35:00
5:55 PM,60.8,57.2,88,30.35,10.0,NNE,18.4,-,N/A,,Scattered Clouds,30,2013-12-11 23:55:00
6:15 PM,60.8,55.4,82,30.36,10.0,NNE,19.6,-,N/A,,Mostly Cloudy,20,2013-12-12 00:15:00
6:35 PM,60.8,55.4,82,30.36,10.0,NNE,17.3,-,N/A,,Overcast,20,2013-12-12 00:35:00
6:55 PM,60.8,55.4,82,30.37,10.0,NNE,18.4,-,N/A,,Overcast,20,2013-12-12 00:55:00
7:15 PM,60.8,55.4,82,30.37,10.0,NNE,18.4,-,N/A,,Overcast,30,2013-12-12 01:15:00
7:35 PM,60.8,55.4,82,30.38,10.0,NNE,18.4,-,N/A,,Overcast,20,2013-12-12 01:35:00
7:55 PM,60.8,55.4,82,30.38,10.0,NNE,17.3,-,N/A,,Overcast,20,2013-12-12 01:55:00
8:15 PM,60.8,55.4,82,30.38,10.0,North,18.4,-,N/A,,Overcast,10,2013-12-12 02:15:00
8:35 PM,60.8,55.4,82,30.39,10.0,NNE,17.3,-,N/A,,Overcast,30,2013-12-12 02:35:00
8:55 PM,60.8,53.6,77,30.39,10.0,NNE,17.3,-,N/A,,Overcast,20,2013-12-12 02:55:00
9:15 PM,60.8,51.8,72,30.39,10.0,NNE,17.3,-,N/A,,Overcast,20,2013-12-12 03:15:00
9:35 PM,60.8,53.6,77,30.39,10.0,NNE,16.1,-,N/A,,Overcast,30,2013-12-12 03:35:00
9:55 PM,60.8,51.8,72,30.40,10.0,NNE,16.1,-,N/A,,Overcast,20,2013-12-12 03:55:00
10:15 PM,60.8,51.8,72,30.40,10.0,NNE,15.0,-,N/A,,Overcast,20,2013-12-12 04:15:00
10:35 PM,60.8,51.8,72,30.40,10.0,NNE,15.0,-,N/A,,Overcast,20,2013-12-12 04:35:00
10:55 PM,60.8,51.8,72,30.40,10.0,NNE,15.0,-,N/A,,Overcast,20,2013-12-12 04:55:00
11:15 PM,60.8,51.8,72,30.40,10.0,NNE,16.1,-,N/A,,Overcast,30,2013-12-12 05:15:00
11:35 PM,60.8,51.8,72,30.40,10.0,NNE,16.1,-,N/A,,Overcast,20,2013-12-12 05:35:00
11:55 PM,60.8,51.8,72,30.40,10.0,NNE,16.1,-,N/A,,Overcast,20,2013-12-12 05:55:00